Year,Month,Day,Hour,Minute,Value (Times are PST for windspeed in km/hr)
2022,04,03,00,00,0.00
2022,04,03,00,01,0.00
2022,04,03,00,02,0.00
2022,04,03,00,03,0.00
2022,04,03,00,04,0.00
2022,04,03,00,05,0.00
2022,04,03,00,06,0.00
2022,04,03,00,07,0.00
2022,04,03,00,08,0.00
2022,04,03,00,09,0.00
2022,04,03,00,10,0.00
2022,04,03,00,11,2.10
2022,04,03,00,12,8.90
2022,04,03,00,13,8.10
2022,04,03,00,14,8.10
2022,04,03,00,15,9.30
2022,04,03,00,16,7.90
2022,04,03,00,17,7.90
2022,04,03,00,18,7.10
2022,04,03,00,19,6.40
2022,04,03,00,20,4.20
2022,04,03,00,21,5.90
2022,04,03,00,22,7.10
2022,04,03,00,23,9.30
2022,04,03,00,24,8.60
2022,04,03,00,25,7.00
2022,04,03,00,26,9.00
2022,04,03,00,27,8.40
2022,04,03,00,28,6.70
2022,04,03,00,29,7.40
2022,04,03,00,30,8.20
2022,04,03,00,31,8.90
2022,04,03,00,32,7.50
2022,04,03,00,33,5.10
2022,04,03,00,34,7.50
2022,04,03,00,35,7.10
2022,04,03,00,36,7.30
2022,04,03,00,37,4.30
2022,04,03,00,38,3.90
2022,04,03,00,39,6.10
2022,04,03,00,40,5.10
2022,04,03,00,41,6.30
2022,04,03,00,42,3.80
2022,04,03,00,43,6.60
2022,04,03,00,44,2.70
2022,04,03,00,45,5.30
2022,04,03,00,46,6.10
2022,04,03,00,47,5.90
2022,04,03,00,48,7.10
2022,04,03,00,49,7.10
2022,04,03,00,50,5.40
2022,04,03,00,51,3.90
2022,04,03,00,52,4.90
2022,04,03,00,53,3.20
2022,04,03,00,54,3.90
2022,04,03,00,55,5.50
2022,04,03,00,56,6.40
2022,04,03,00,57,4.70
2022,04,03,00,58,5.80
2022,04,03,00,59,7.10
2022,04,03,01,00,4.90
2022,04,03,01,01,3.70
2022,04,03,01,02,4.40
2022,04,03,01,03,3.80
2022,04,03,01,04,2.20
2022,04,03,01,05,3.10
2022,04,03,01,06,4.30
2022,04,03,01,07,3.30
2022,04,03,01,08,6.80
2022,04,03,01,09,2.40
2022,04,03,01,10,3.10
2022,04,03,01,11,0.60
2022,04,03,01,12,2.30
2022,04,03,01,13,0.00
2022,04,03,01,14,0.00
2022,04,03,01,15,0.00
2022,04,03,01,16,0.00
2022,04,03,01,17,0.00
2022,04,03,01,18,0.00
2022,04,03,01,19,0.20
2022,04,03,01,20,5.10
2022,04,03,01,21,2.00
2022,04,03,01,22,0.10
2022,04,03,01,23,0.00
2022,04,03,01,24,0.00
2022,04,03,01,25,0.00
2022,04,03,01,26,0.10
2022,04,03,01,27,0.00
2022,04,03,01,28,0.00
2022,04,03,01,29,0.00
2022,04,03,01,30,0.00
2022,04,03,01,31,0.00
2022,04,03,01,32,0.00
2022,04,03,01,33,0.00
2022,04,03,01,34,0.00
2022,04,03,01,35,0.00
2022,04,03,01,36,0.00
2022,04,03,01,37,0.00
2022,04,03,01,38,0.00
2022,04,03,01,39,0.00
2022,04,03,01,40,0.00
2022,04,03,01,41,0.00
2022,04,03,01,42,0.00
2022,04,03,01,43,0.00
2022,04,03,01,44,0.00
2022,04,03,01,45,0.00
2022,04,03,01,46,0.00
2022,04,03,01,47,0.00
2022,04,03,01,48,0.00
2022,04,03,01,49,0.00
2022,04,03,01,50,0.00
2022,04,03,01,51,0.00
2022,04,03,01,52,0.00
2022,04,03,01,53,0.00
2022,04,03,01,54,0.00
2022,04,03,01,55,0.00
2022,04,03,01,56,0.00
2022,04,03,01,57,0.00
2022,04,03,01,58,0.00
2022,04,03,01,59,0.00
2022,04,03,02,00,0.00
2022,04,03,02,01,0.00
2022,04,03,02,02,0.00
2022,04,03,02,03,2.00
2022,04,03,02,04,0.20
2022,04,03,02,05,0.00
2022,04,03,02,06,1.40
2022,04,03,02,07,2.80
2022,04,03,02,08,1.90
2022,04,03,02,09,3.00
2022,04,03,02,10,5.90
2022,04,03,02,11,7.00
2022,04,03,02,12,6.80
2022,04,03,02,13,6.10
2022,04,03,02,14,6.00
2022,04,03,02,15,3.60
2022,04,03,02,16,4.50
2022,04,03,02,17,5.30
2022,04,03,02,18,6.70
2022,04,03,02,19,6.40
2022,04,03,02,20,6.60
2022,04,03,02,21,7.70
2022,04,03,02,22,7.60
2022,04,03,02,23,6.80
2022,04,03,02,24,6.80
2022,04,03,02,25,6.60
2022,04,03,02,26,4.90
2022,04,03,02,27,2.20
2022,04,03,02,28,3.30
2022,04,03,02,29,0.00
2022,04,03,02,30,0.40
2022,04,03,02,31,4.90
2022,04,03,02,32,8.60
2022,04,03,02,33,8.10
2022,04,03,02,34,4.10
2022,04,03,02,35,0.60
2022,04,03,02,36,0.00
2022,04,03,02,37,0.60
2022,04,03,02,38,0.90
2022,04,03,02,39,0.10
2022,04,03,02,40,0.00
2022,04,03,02,41,0.00
2022,04,03,02,42,0.10
2022,04,03,02,43,0.00
2022,04,03,02,44,3.00
2022,04,03,02,45,6.40
2022,04,03,02,46,10.20
2022,04,03,02,47,13.20
2022,04,03,02,48,12.50
2022,04,03,02,49,9.30
2022,04,03,02,50,6.80
2022,04,03,02,51,6.10
2022,04,03,02,52,4.10
2022,04,03,02,53,6.40
2022,04,03,02,54,0.60
2022,04,03,02,55,3.80
2022,04,03,02,56,0.40
2022,04,03,02,57,1.00
2022,04,03,02,58,6.80
2022,04,03,02,59,7.70
2022,04,03,03,00,8.40
2022,04,03,03,01,7.50
2022,04,03,03,02,4.60
2022,04,03,03,03,1.50
2022,04,03,03,04,0.00
2022,04,03,03,05,1.80
2022,04,03,03,06,2.00
2022,04,03,03,07,4.80
2022,04,03,03,08,7.10
2022,04,03,03,09,5.00
2022,04,03,03,10,5.90
2022,04,03,03,11,6.60
2022,04,03,03,12,1.70
2022,04,03,03,13,0.00
2022,04,03,03,14,0.00
2022,04,03,03,15,0.00
2022,04,03,03,16,0.00
2022,04,03,03,17,0.00
2022,04,03,03,18,0.00
2022,04,03,03,19,0.00
2022,04,03,03,20,0.00
2022,04,03,03,21,1.10
2022,04,03,03,22,0.10
2022,04,03,03,23,4.50
2022,04,03,03,24,10.80
2022,04,03,03,25,8.50
2022,04,03,03,26,11.70
2022,04,03,03,27,9.70
2022,04,03,03,28,3.40
2022,04,03,03,29,3.50
2022,04,03,03,30,6.20
2022,04,03,03,31,11.00
2022,04,03,03,32,11.60
2022,04,03,03,33,10.60
2022,04,03,03,34,8.10
2022,04,03,03,35,9.70
2022,04,03,03,36,8.30
2022,04,03,03,37,6.60
2022,04,03,03,38,6.40
2022,04,03,03,39,4.10
2022,04,03,03,40,0.20
2022,04,03,03,41,2.80
2022,04,03,03,42,12.70
2022,04,03,03,43,13.60
2022,04,03,03,44,11.90
2022,04,03,03,45,10.90
2022,04,03,03,46,8.20
2022,04,03,03,47,3.60
2022,04,03,03,48,0.10
2022,04,03,03,49,0.00
2022,04,03,03,50,0.10
2022,04,03,03,51,3.30
2022,04,03,03,52,9.40
2022,04,03,03,53,5.90
2022,04,03,03,54,0.70
2022,04,03,03,55,0.00
2022,04,03,03,56,0.20
2022,04,03,03,57,1.10
2022,04,03,03,58,1.70
2022,04,03,03,59,0.20
2022,04,03,04,00,0.00
2022,04,03,04,01,1.90
2022,04,03,04,02,9.50
2022,04,03,04,03,10.80
2022,04,03,04,04,11.80
2022,04,03,04,05,10.20
2022,04,03,04,06,8.50
2022,04,03,04,07,4.00
2022,04,03,04,08,1.50
2022,04,03,04,09,0.00
2022,04,03,04,10,0.00
2022,04,03,04,11,0.00
2022,04,03,04,12,0.00
2022,04,03,04,13,0.00
2022,04,03,04,14,0.00
2022,04,03,04,15,0.00
2022,04,03,04,16,0.10
2022,04,03,04,17,0.00
2022,04,03,04,18,0.20
2022,04,03,04,19,3.40
2022,04,03,04,20,5.70
2022,04,03,04,21,4.60
2022,04,03,04,22,2.90
2022,04,03,04,23,1.40
2022,04,03,04,24,1.80
2022,04,03,04,25,0.20
2022,04,03,04,26,0.10
2022,04,03,04,27,0.00
2022,04,03,04,28,0.00
2022,04,03,04,29,0.00
2022,04,03,04,30,0.00
2022,04,03,04,31,0.00
2022,04,03,04,32,0.00
2022,04,03,04,33,0.00
2022,04,03,04,34,0.00
2022,04,03,04,35,0.10
2022,04,03,04,36,0.50
2022,04,03,04,37,0.20
2022,04,03,04,38,0.90
2022,04,03,04,39,1.10
2022,04,03,04,40,0.00
2022,04,03,04,41,0.10
2022,04,03,04,42,0.00
2022,04,03,04,43,0.00
2022,04,03,04,44,0.00
2022,04,03,04,45,0.20
2022,04,03,04,46,0.70
2022,04,03,04,47,0.00
2022,04,03,04,48,0.00
2022,04,03,04,49,0.10
2022,04,03,04,50,1.90
2022,04,03,04,51,0.30
2022,04,03,04,52,0.00
2022,04,03,04,53,0.10
2022,04,03,04,54,0.00
2022,04,03,04,55,0.00
2022,04,03,04,56,0.00
2022,04,03,04,57,0.10
2022,04,03,04,58,0.00
2022,04,03,04,59,0.00
2022,04,03,05,00,0.00
2022,04,03,05,01,0.00
2022,04,03,05,02,0.00
2022,04,03,05,03,0.70
2022,04,03,05,04,0.00
2022,04,03,05,05,0.00
2022,04,03,05,06,0.00
2022,04,03,05,07,0.00
2022,04,03,05,08,0.00
2022,04,03,05,09,0.00
2022,04,03,05,10,0.00
2022,04,03,05,11,0.00
2022,04,03,05,12,0.00
2022,04,03,05,13,0.00
2022,04,03,05,14,0.00
2022,04,03,05,15,0.00
2022,04,03,05,16,0.00
2022,04,03,05,17,0.00
2022,04,03,05,18,0.00
2022,04,03,05,19,0.00
2022,04,03,05,20,0.00
2022,04,03,05,21,0.00
2022,04,03,05,22,0.00
2022,04,03,05,23,0.00
2022,04,03,05,24,0.00
2022,04,03,05,25,0.00
2022,04,03,05,26,0.00
2022,04,03,05,27,0.00
2022,04,03,05,28,0.00
2022,04,03,05,29,0.00
2022,04,03,05,30,0.00
2022,04,03,05,31,0.00
2022,04,03,05,32,0.00
2022,04,03,05,33,0.00
2022,04,03,05,34,0.00
2022,04,03,05,35,0.00
2022,04,03,05,36,0.00
2022,04,03,05,37,0.00
2022,04,03,05,38,0.00
2022,04,03,05,39,0.00
2022,04,03,05,40,0.00
2022,04,03,05,41,0.00
2022,04,03,05,42,0.00
2022,04,03,05,43,0.00
2022,04,03,05,44,0.00
2022,04,03,05,45,0.00
2022,04,03,05,46,0.00
2022,04,03,05,47,0.00
2022,04,03,05,48,0.00
2022,04,03,05,49,0.00
2022,04,03,05,50,0.00
2022,04,03,05,51,0.00
2022,04,03,05,52,0.00
2022,04,03,05,53,0.40
2022,04,03,05,54,4.00
2022,04,03,05,55,3.00
2022,04,03,05,56,0.80
2022,04,03,05,57,1.10
2022,04,03,05,58,0.10
2022,04,03,05,59,0.00
2022,04,03,06,00,0.00
2022,04,03,06,01,0.00
2022,04,03,06,02,0.00
2022,04,03,06,03,0.00
2022,04,03,06,04,0.00
2022,04,03,06,05,0.00
2022,04,03,06,06,0.40
2022,04,03,06,07,0.60
2022,04,03,06,08,0.00
2022,04,03,06,09,0.00
2022,04,03,06,10,0.00
2022,04,03,06,11,0.00
2022,04,03,06,12,0.00
2022,04,03,06,13,0.00
2022,04,03,06,14,0.00
2022,04,03,06,15,0.00
2022,04,03,06,16,0.00
2022,04,03,06,17,0.00
2022,04,03,06,18,0.00
2022,04,03,06,19,0.00
2022,04,03,06,20,0.00
2022,04,03,06,21,0.00
2022,04,03,06,22,0.00
2022,04,03,06,23,0.00
2022,04,03,06,24,0.00
2022,04,03,06,25,0.00
2022,04,03,06,26,0.00
2022,04,03,06,27,0.20
2022,04,03,06,28,1.70
2022,04,03,06,29,0.10
2022,04,03,06,30,1.70
2022,04,03,06,31,2.40
2022,04,03,06,32,4.60
2022,04,03,06,33,1.50
2022,04,03,06,34,3.00
2022,04,03,06,35,1.30
2022,04,03,06,36,0.80
2022,04,03,06,37,1.70
2022,04,03,06,38,0.10
2022,04,03,06,39,2.20
2022,04,03,06,40,3.50
2022,04,03,06,41,2.60
2022,04,03,06,42,6.30
2022,04,03,06,43,3.40
2022,04,03,06,44,1.90
2022,04,03,06,45,0.40
2022,04,03,06,46,2.70
2022,04,03,06,47,3.20
2022,04,03,06,48,2.00
2022,04,03,06,49,2.80
2022,04,03,06,50,0.20
2022,04,03,06,51,0.20
2022,04,03,06,52,0.00
2022,04,03,06,53,0.00
2022,04,03,06,54,0.00
2022,04,03,06,55,4.20
2022,04,03,06,56,3.30
2022,04,03,06,57,1.40
2022,04,03,06,58,0.00
2022,04,03,06,59,0.00
2022,04,03,07,00,2.20
2022,04,03,07,01,0.10
2022,04,03,07,02,0.40
2022,04,03,07,03,1.20
2022,04,03,07,04,0.40
2022,04,03,07,05,1.40
2022,04,03,07,06,4.30
2022,04,03,07,07,1.90
2022,04,03,07,08,0.40
2022,04,03,07,09,0.10
2022,04,03,07,10,0.00
2022,04,03,07,11,0.10
2022,04,03,07,12,0.80
2022,04,03,07,13,2.60
2022,04,03,07,14,4.10
2022,04,03,07,15,0.00
2022,04,03,07,16,1.40
2022,04,03,07,17,0.20
2022,04,03,07,18,0.40
2022,04,03,07,19,0.20
2022,04,03,07,20,0.00
2022,04,03,07,21,1.10
2022,04,03,07,22,0.00
2022,04,03,07,23,0.00
2022,04,03,07,24,0.00
2022,04,03,07,25,0.00
2022,04,03,07,26,0.30
2022,04,03,07,27,1.00
2022,04,03,07,28,0.10
2022,04,03,07,29,0.00
2022,04,03,07,30,0.00
2022,04,03,07,31,0.00
2022,04,03,07,32,0.00
2022,04,03,07,33,0.00
2022,04,03,07,34,0.00
2022,04,03,07,35,0.00
2022,04,03,07,36,0.20
2022,04,03,07,37,2.40
2022,04,03,07,38,0.00
2022,04,03,07,39,0.00
2022,04,03,07,40,0.00
2022,04,03,07,41,0.00
2022,04,03,07,42,0.20
2022,04,03,07,43,0.10
2022,04,03,07,44,2.40
2022,04,03,07,45,1.40
2022,04,03,07,46,0.00
2022,04,03,07,47,0.00
2022,04,03,07,48,0.10
2022,04,03,07,49,0.00
2022,04,03,07,50,0.00
2022,04,03,07,51,0.00
2022,04,03,07,52,0.00
2022,04,03,07,53,4.30
2022,04,03,07,54,0.50
2022,04,03,07,55,0.30
2022,04,03,07,56,3.20
2022,04,03,07,57,5.10
2022,04,03,07,58,2.30
2022,04,03,07,59,6.30
2022,04,03,08,00,5.00
2022,04,03,08,01,1.90
2022,04,03,08,02,7.60
2022,04,03,08,03,7.70
2022,04,03,08,04,4.20
2022,04,03,08,05,6.60
2022,04,03,08,06,6.10
2022,04,03,08,07,4.40
2022,04,03,08,08,3.40
2022,04,03,08,09,0.00
2022,04,03,08,10,1.00
2022,04,03,08,11,1.00
2022,04,03,08,12,2.40
2022,04,03,08,13,4.40
2022,04,03,08,14,6.40
2022,04,03,08,15,8.90
2022,04,03,08,16,4.80
2022,04,03,08,17,3.30
2022,04,03,08,18,7.70
2022,04,03,08,19,12.20
2022,04,03,08,20,11.10
2022,04,03,08,21,7.10
2022,04,03,08,22,6.00
2022,04,03,08,23,5.60
2022,04,03,08,24,4.60
2022,04,03,08,25,6.60
2022,04,03,08,26,7.50
2022,04,03,08,27,7.20
2022,04,03,08,28,3.70
2022,04,03,08,29,2.50
2022,04,03,08,30,4.00
2022,04,03,08,31,3.20
2022,04,03,08,32,2.50
2022,04,03,08,33,0.10
2022,04,03,08,34,0.10
2022,04,03,08,35,0.20
2022,04,03,08,36,0.00
2022,04,03,08,37,0.00
2022,04,03,08,38,0.00
2022,04,03,08,39,0.00
2022,04,03,08,40,0.00
2022,04,03,08,41,0.00
2022,04,03,08,42,0.00
2022,04,03,08,43,0.00
2022,04,03,08,44,0.00
2022,04,03,08,45,0.00
2022,04,03,08,46,1.70
2022,04,03,08,47,1.00
2022,04,03,08,48,2.20
2022,04,03,08,49,0.00
2022,04,03,08,50,0.00
2022,04,03,08,51,0.10
2022,04,03,08,52,0.00
2022,04,03,08,53,2.00
2022,04,03,08,54,5.50
2022,04,03,08,55,2.90
2022,04,03,08,56,2.70
2022,04,03,08,57,1.30
2022,04,03,08,58,1.30
2022,04,03,08,59,1.00
2022,04,03,09,00,0.00
2022,04,03,09,01,0.00
2022,04,03,09,02,2.90
2022,04,03,09,03,5.30
2022,04,03,09,04,4.90
2022,04,03,09,05,3.00
2022,04,03,09,06,2.40
2022,04,03,09,07,2.10
2022,04,03,09,08,0.70
2022,04,03,09,09,0.00
2022,04,03,09,10,0.70
2022,04,03,09,11,2.40
2022,04,03,09,12,2.30
2022,04,03,09,13,1.60
2022,04,03,09,14,4.40
2022,04,03,09,15,4.10
2022,04,03,09,16,0.10
2022,04,03,09,17,2.40
2022,04,03,09,18,0.10
2022,04,03,09,19,0.10
2022,04,03,09,20,0.10
2022,04,03,09,21,0.10
2022,04,03,09,22,0.70
2022,04,03,09,23,2.90
2022,04,03,09,24,0.00
2022,04,03,09,25,0.00
2022,04,03,09,26,0.00
2022,04,03,09,27,0.00
2022,04,03,09,28,0.00
2022,04,03,09,29,0.00
2022,04,03,09,30,0.00
2022,04,03,09,31,0.00
2022,04,03,09,32,0.00
2022,04,03,09,33,0.00
2022,04,03,09,34,0.00
2022,04,03,09,35,0.00
2022,04,03,09,36,0.00
2022,04,03,09,37,0.00
2022,04,03,09,38,0.00
2022,04,03,09,39,0.00
2022,04,03,09,40,0.00
2022,04,03,09,41,0.00
2022,04,03,09,42,0.00
2022,04,03,09,43,0.00
2022,04,03,09,44,0.00
2022,04,03,09,45,0.00
2022,04,03,09,46,0.00
2022,04,03,09,47,0.00
2022,04,03,09,48,0.00
2022,04,03,09,49,0.00
2022,04,03,09,50,0.00
2022,04,03,09,51,0.00
2022,04,03,09,52,0.00
2022,04,03,09,53,0.10
2022,04,03,09,54,1.40
2022,04,03,09,55,0.10
2022,04,03,09,56,0.00
2022,04,03,09,57,2.70
2022,04,03,09,58,5.10
2022,04,03,09,59,7.40
2022,04,03,10,00,7.20
2022,04,03,10,01,7.30
2022,04,03,10,02,7.20
2022,04,03,10,03,7.50
2022,04,03,10,04,5.60
2022,04,03,10,05,5.80
2022,04,03,10,06,8.40
2022,04,03,10,07,8.20
2022,04,03,10,08,8.90
2022,04,03,10,09,5.30
2022,04,03,10,10,3.10
2022,04,03,10,11,5.30
2022,04,03,10,12,6.10
2022,04,03,10,13,4.90
2022,04,03,10,14,1.40
2022,04,03,10,15,4.20
2022,04,03,10,16,6.50
2022,04,03,10,17,4.20
2022,04,03,10,18,3.00
2022,04,03,10,19,3.50
2022,04,03,10,20,8.50
2022,04,03,10,21,8.10
2022,04,03,10,22,7.20
2022,04,03,10,23,6.10
2022,04,03,10,24,1.40
2022,04,03,10,25,5.30
2022,04,03,10,26,2.40
2022,04,03,10,27,5.30
2022,04,03,10,28,2.50
2022,04,03,10,29,7.00
2022,04,03,10,30,3.10
2022,04,03,10,31,6.20
2022,04,03,10,32,3.00
2022,04,03,10,33,2.80
2022,04,03,10,34,1.90
2022,04,03,10,35,7.60
2022,04,03,10,36,6.40
2022,04,03,10,37,9.60
2022,04,03,10,38,4.00
2022,04,03,10,39,3.80
2022,04,03,10,40,10.60
2022,04,03,10,41,7.10
2022,04,03,10,42,7.90
2022,04,03,10,43,8.10
2022,04,03,10,44,5.40
2022,04,03,10,45,5.60
2022,04,03,10,46,6.30
2022,04,03,10,47,4.60
2022,04,03,10,48,8.30
2022,04,03,10,49,11.90
2022,04,03,10,50,10.50
2022,04,03,10,51,12.60
2022,04,03,10,52,4.60
2022,04,03,10,53,5.50
2022,04,03,10,54,11.20
2022,04,03,10,55,10.40
2022,04,03,10,56,13.30
2022,04,03,10,57,12.90
2022,04,03,10,58,10.20
2022,04,03,10,59,10.00
2022,04,03,11,00,11.70
2022,04,03,11,01,10.60
2022,04,03,11,02,11.20
2022,04,03,11,03,10.50
2022,04,03,11,04,11.00
2022,04,03,11,05,17.80
2022,04,03,11,06,14.20
2022,04,03,11,07,14.20
2022,04,03,11,08,17.10
2022,04,03,11,09,14.70
2022,04,03,11,10,9.20
2022,04,03,11,11,7.60
2022,04,03,11,12,14.60
2022,04,03,11,13,16.10
2022,04,03,11,14,17.00
2022,04,03,11,15,17.30
2022,04,03,11,16,14.60
2022,04,03,11,17,8.10
2022,04,03,11,18,8.90
2022,04,03,11,19,7.30
2022,04,03,11,20,10.00
2022,04,03,11,21,7.30
2022,04,03,11,22,9.00
2022,04,03,11,23,7.00
2022,04,03,11,24,8.80
2022,04,03,11,25,9.70
2022,04,03,11,26,8.10
2022,04,03,11,27,8.10
2022,04,03,11,28,10.50
2022,04,03,11,29,11.70
2022,04,03,11,30,11.50
2022,04,03,11,31,6.70
2022,04,03,11,32,5.90
2022,04,03,11,33,7.80
2022,04,03,11,34,7.90
2022,04,03,11,35,9.40
2022,04,03,11,36,7.10
2022,04,03,11,37,10.00
2022,04,03,11,38,9.50
2022,04,03,11,39,11.50
2022,04,03,11,40,9.90
2022,04,03,11,41,11.30
2022,04,03,11,42,12.40
2022,04,03,11,43,9.70
2022,04,03,11,44,14.90
2022,04,03,11,45,18.80
2022,04,03,11,46,14.10
2022,04,03,11,47,12.40
2022,04,03,11,48,9.20
2022,04,03,11,49,9.70
2022,04,03,11,50,10.70
2022,04,03,11,51,15.30
2022,04,03,11,52,13.40
2022,04,03,11,53,12.50
2022,04,03,11,54,11.50
2022,04,03,11,55,13.20
2022,04,03,11,56,13.60
2022,04,03,11,57,13.20
2022,04,03,11,58,13.20
2022,04,03,11,59,10.50
2022,04,03,12,00,9.90
2022,04,03,12,01,7.70
2022,04,03,12,02,11.50
2022,04,03,12,03,11.90
2022,04,03,12,04,12.90
2022,04,03,12,05,11.80
2022,04,03,12,06,11.30
2022,04,03,12,07,14.10
2022,04,03,12,08,12.30
2022,04,03,12,09,11.80
2022,04,03,12,10,11.80
2022,04,03,12,11,8.30
2022,04,03,12,12,8.80
2022,04,03,12,13,10.30
2022,04,03,12,14,9.30
2022,04,03,12,15,11.10
2022,04,03,12,16,9.80
2022,04,03,12,17,11.10
2022,04,03,12,18,10.00
2022,04,03,12,19,6.90
2022,04,03,12,20,9.50
2022,04,03,12,21,8.90
2022,04,03,12,22,9.10
2022,04,03,12,23,9.50
2022,04,03,12,24,7.60
2022,04,03,12,25,7.40
2022,04,03,12,26,10.00
2022,04,03,12,27,10.70
2022,04,03,12,28,11.60
2022,04,03,12,29,14.40
2022,04,03,12,30,16.30
2022,04,03,12,31,15.50
2022,04,03,12,32,13.80
2022,04,03,12,33,13.80
2022,04,03,12,34,10.70
2022,04,03,12,35,9.20
2022,04,03,12,36,10.60
2022,04,03,12,37,7.60
2022,04,03,12,38,7.30
2022,04,03,12,39,6.10
2022,04,03,12,40,3.40
2022,04,03,12,41,6.10
2022,04,03,12,42,5.30
2022,04,03,12,43,8.00
2022,04,03,12,44,11.40
2022,04,03,12,45,6.80
2022,04,03,12,46,9.50
2022,04,03,12,47,10.00
2022,04,03,12,48,10.70
2022,04,03,12,49,10.50
2022,04,03,12,50,8.30
2022,04,03,12,51,12.30
2022,04,03,12,52,11.70
2022,04,03,12,53,8.50
2022,04,03,12,54,7.10
2022,04,03,12,55,6.00
2022,04,03,12,56,7.50
2022,04,03,12,57,4.90
2022,04,03,12,58,6.30
2022,04,03,12,59,8.70
2022,04,03,13,00,7.90
2022,04,03,13,01,2.40
2022,04,03,13,02,5.80
2022,04,03,13,03,9.40
2022,04,03,13,04,8.60
2022,04,03,13,05,4.50
2022,04,03,13,06,4.40
2022,04,03,13,07,5.90
2022,04,03,13,08,6.10
2022,04,03,13,09,6.60
2022,04,03,13,10,1.90
2022,04,03,13,11,6.80
2022,04,03,13,12,4.30
2022,04,03,13,13,4.50
2022,04,03,13,14,6.50
2022,04,03,13,15,4.60
2022,04,03,13,16,6.80
2022,04,03,13,17,1.30
2022,04,03,13,18,2.00
2022,04,03,13,19,2.00
2022,04,03,13,20,4.50
2022,04,03,13,21,3.90
2022,04,03,13,22,3.20
2022,04,03,13,23,0.40
2022,04,03,13,24,1.50
2022,04,03,13,25,6.30
2022,04,03,13,26,5.10
2022,04,03,13,27,5.10
2022,04,03,13,28,1.60
2022,04,03,13,29,0.10
2022,04,03,13,30,0.00
2022,04,03,13,31,0.00
2022,04,03,13,32,0.00
2022,04,03,13,33,0.00
2022,04,03,13,34,0.40
2022,04,03,13,35,0.60
2022,04,03,13,36,0.10
2022,04,03,13,37,0.40
2022,04,03,13,38,0.70
2022,04,03,13,39,0.10
2022,04,03,13,40,1.60
2022,04,03,13,41,1.90
2022,04,03,13,42,2.00
2022,04,03,13,43,0.40
2022,04,03,13,44,0.00
2022,04,03,13,45,0.00
2022,04,03,13,46,0.00
2022,04,03,13,47,2.70
2022,04,03,13,48,1.90
2022,04,03,13,49,2.70
2022,04,03,13,50,0.00
2022,04,03,13,51,2.30
2022,04,03,13,52,2.50
2022,04,03,13,53,0.10
2022,04,03,13,54,0.00
2022,04,03,13,55,0.00
2022,04,03,13,56,4.30
2022,04,03,13,57,1.90
2022,04,03,13,58,0.10
2022,04,03,13,59,0.60
2022,04,03,14,00,0.70
2022,04,03,14,01,0.10
2022,04,03,14,02,0.40
2022,04,03,14,03,0.20
2022,04,03,14,04,0.00
2022,04,03,14,05,0.20
2022,04,03,14,06,0.50
2022,04,03,14,07,0.00
2022,04,03,14,08,0.00
2022,04,03,14,09,0.20
2022,04,03,14,10,5.20
2022,04,03,14,11,3.80
2022,04,03,14,12,2.80
2022,04,03,14,13,2.60
2022,04,03,14,14,0.30
2022,04,03,14,15,0.90
2022,04,03,14,16,0.10
2022,04,03,14,17,2.80
2022,04,03,14,18,3.30
2022,04,03,14,19,1.70
2022,04,03,14,20,1.30
2022,04,03,14,21,0.10
2022,04,03,14,22,0.10
2022,04,03,14,23,1.70
2022,04,03,14,24,0.00
2022,04,03,14,25,0.00
2022,04,03,14,26,0.00
2022,04,03,14,27,0.00
2022,04,03,14,28,0.00
2022,04,03,14,29,0.00
2022,04,03,14,30,0.00
2022,04,03,14,31,0.00
2022,04,03,14,32,0.00
2022,04,03,14,33,0.00
2022,04,03,14,34,2.40
2022,04,03,14,35,0.00
2022,04,03,14,36,0.00
2022,04,03,14,37,0.10
2022,04,03,14,38,0.60
2022,04,03,14,39,0.00
2022,04,03,14,40,1.40
2022,04,03,14,41,4.00
2022,04,03,14,42,0.60
2022,04,03,14,43,1.40
2022,04,03,14,44,0.00
2022,04,03,14,45,0.20
2022,04,03,14,46,1.10
2022,04,03,14,47,3.20
2022,04,03,14,48,7.60
2022,04,03,14,49,4.60
2022,04,03,14,50,0.20
2022,04,03,14,51,4.40
2022,04,03,14,52,3.80
2022,04,03,14,53,0.10
2022,04,03,14,54,0.00
2022,04,03,14,55,0.00
2022,04,03,14,56,0.00
2022,04,03,14,57,0.00
2022,04,03,14,58,0.00
2022,04,03,14,59,0.00
2022,04,03,15,00,0.00
2022,04,03,15,01,4.00
2022,04,03,15,02,4.20
2022,04,03,15,03,7.10
2022,04,03,15,04,2.10
2022,04,03,15,05,0.10
2022,04,03,15,06,0.10
2022,04,03,15,07,2.80
2022,04,03,15,08,5.70
2022,04,03,15,09,2.10
2022,04,03,15,10,2.60
2022,04,03,15,11,0.00
2022,04,03,15,12,0.00
2022,04,03,15,13,0.30
2022,04,03,15,14,1.30
2022,04,03,15,15,3.30
2022,04,03,15,16,4.60
2022,04,03,15,17,6.50
2022,04,03,15,18,1.50
2022,04,03,15,19,3.20
2022,04,03,15,20,0.40
2022,04,03,15,21,4.60
2022,04,03,15,22,5.90
2022,04,03,15,23,5.50
2022,04,03,15,24,0.60
2022,04,03,15,25,2.20
2022,04,03,15,26,7.10
2022,04,03,15,27,4.60
2022,04,03,15,28,4.70
2022,04,03,15,29,5.60
2022,04,03,15,30,1.70
2022,04,03,15,31,1.00
2022,04,03,15,32,0.10
2022,04,03,15,33,0.20
2022,04,03,15,34,0.00
2022,04,03,15,35,0.10
2022,04,03,15,36,0.40
2022,04,03,15,37,3.30
2022,04,03,15,38,4.10
2022,04,03,15,39,0.70
2022,04,03,15,40,0.00
2022,04,03,15,41,0.00
2022,04,03,15,42,2.50
2022,04,03,15,43,0.00
2022,04,03,15,44,0.10
2022,04,03,15,45,1.40
2022,04,03,15,46,0.00
2022,04,03,15,47,0.20
2022,04,03,15,48,2.30
2022,04,03,15,49,4.40
2022,04,03,15,50,2.50
2022,04,03,15,51,5.30
2022,04,03,15,52,7.30
2022,04,03,15,53,5.50
2022,04,03,15,54,6.20
2022,04,03,15,55,5.50
2022,04,03,15,56,4.00
2022,04,03,15,57,3.10
2022,04,03,15,58,4.70
2022,04,03,15,59,2.20
2022,04,03,16,00,3.80
2022,04,03,16,01,3.50
2022,04,03,16,02,3.00
2022,04,03,16,03,2.20
2022,04,03,16,04,1.40
2022,04,03,16,05,0.00
2022,04,03,16,06,3.00
2022,04,03,16,07,1.60
2022,04,03,16,08,0.10
2022,04,03,16,09,0.20
2022,04,03,16,10,0.00
2022,04,03,16,11,0.00
2022,04,03,16,12,0.00
2022,04,03,16,13,0.10
2022,04,03,16,14,2.30
2022,04,03,16,15,2.70
2022,04,03,16,16,6.30
2022,04,03,16,17,3.40
2022,04,03,16,18,0.20
2022,04,03,16,19,1.10
2022,04,03,16,20,0.90
2022,04,03,16,21,2.70
2022,04,03,16,22,4.20
2022,04,03,16,23,2.90
2022,04,03,16,24,0.90
2022,04,03,16,25,0.10
2022,04,03,16,26,0.00
2022,04,03,16,27,0.70
2022,04,03,16,28,6.90
2022,04,03,16,29,5.10
2022,04,03,16,30,6.20
2022,04,03,16,31,4.80
2022,04,03,16,32,6.30
2022,04,03,16,33,6.10
2022,04,03,16,34,9.00
2022,04,03,16,35,7.50
2022,04,03,16,36,8.90
2022,04,03,16,37,8.10
2022,04,03,16,38,7.90
2022,04,03,16,39,7.20
2022,04,03,16,40,4.50
2022,04,03,16,41,5.80
2022,04,03,16,42,5.70
2022,04,03,16,43,8.00
2022,04,03,16,44,7.30
2022,04,03,16,45,7.70
2022,04,03,16,46,4.90
2022,04,03,16,47,7.70
2022,04,03,16,48,6.60
2022,04,03,16,49,5.40
2022,04,03,16,50,6.80
2022,04,03,16,51,5.30
2022,04,03,16,52,6.10
2022,04,03,16,53,6.90
2022,04,03,16,54,7.10
2022,04,03,16,55,7.40
2022,04,03,16,56,5.40
2022,04,03,16,57,5.10
2022,04,03,16,58,5.90
2022,04,03,16,59,7.90
2022,04,03,17,00,5.10
2022,04,03,17,01,3.60
2022,04,03,17,02,3.10
2022,04,03,17,03,4.20
2022,04,03,17,04,0.70
2022,04,03,17,05,0.10
2022,04,03,17,06,2.40
2022,04,03,17,07,1.00
2022,04,03,17,08,2.40
2022,04,03,17,09,2.40
2022,04,03,17,10,2.50
2022,04,03,17,11,2.40
2022,04,03,17,12,3.80
2022,04,03,17,13,2.50
2022,04,03,17,14,4.50
2022,04,03,17,15,3.00
2022,04,03,17,16,1.50
2022,04,03,17,17,4.30
2022,04,03,17,18,3.70
2022,04,03,17,19,2.00
2022,04,03,17,20,0.90
2022,04,03,17,21,0.10
2022,04,03,17,22,2.20
2022,04,03,17,23,5.30
2022,04,03,17,24,2.20
2022,04,03,17,25,0.40
2022,04,03,17,26,0.80
2022,04,03,17,27,5.10
2022,04,03,17,28,5.30
2022,04,03,17,29,3.70
2022,04,03,17,30,2.00
2022,04,03,17,31,1.40
2022,04,03,17,32,0.30
2022,04,03,17,33,0.00
2022,04,03,17,34,0.00
2022,04,03,17,35,0.20
2022,04,03,17,36,0.10
2022,04,03,17,37,0.00
2022,04,03,17,38,0.00
2022,04,03,17,39,0.00
2022,04,03,17,40,0.00
2022,04,03,17,41,0.00
2022,04,03,17,42,0.00
2022,04,03,17,43,0.00
2022,04,03,17,44,0.00
2022,04,03,17,45,0.00
2022,04,03,17,46,0.00
2022,04,03,17,47,0.00
2022,04,03,17,48,0.00
2022,04,03,17,49,0.00
2022,04,03,17,50,0.00
2022,04,03,17,51,0.00
2022,04,03,17,52,0.00
2022,04,03,17,53,0.00
2022,04,03,17,54,0.00
2022,04,03,17,55,0.00
2022,04,03,17,56,0.00
2022,04,03,17,57,0.00
2022,04,03,17,58,0.00
2022,04,03,17,59,0.00
2022,04,03,18,00,0.00
2022,04,03,18,01,0.00
2022,04,03,18,02,0.00